Weather History for Hagerstown, MD

Change the Weather History Date:

Friday, January 4, 2013

  Actual Average Record
Temperature  
Mean Temperature 34 °F -  
Max Temperature 37 °F 39 °F 69 °F (1997)
Min Temperature 30 °F 25 °F 5 °F (2014)
Degree Days  
Heating Degree Days 32    
Moisture  
Dew Point 20 °F    
Average Humidity 59    
Maximum Humidity 67    
Minimum Humidity 50    
Precipitation  
Precipitation 0.00 in - - ()
Sea Level Pressure  
Sea Level Pressure 30.18 in    
Wind  
Wind Speed 15 mph (West)    
Max Wind Speed 20 mph    
Max Gust Speed 28 mph    
Visibility 10 miles    
Events      
Averages and records for this station are not official NWS values.
T = Trace of Precipitation, MM = Missing Value Source: NWS Daily Summary

Daily Weather History Graph

Daily Weather History Graph

Search for Another Location

Airport:

Trip Planner

Search our weather history database for the weather conditions in past years. The results will help you decide how hot, cold, wet, or windy it might be!

Date:

Astronomy

Jan. 04, 2013 Rise Set
Actual Time 7:32 AM EST 5:00 PM EST
Civil Twilight 7:02 AM EST 5:30 PM EST
Nautical Twilight 6:28 AM EST 6:03 PM EST
Astronomical Twilight 5:55 AM EST 6:36 PM EST
Moon No Moon Rise 11:15 AM EST (1/4)
Length of Visible Light 10h 28m
Length of Day
9h 28m
Waning Gibbous, 55% of the Moon is Illuminated
Jan 4
Waning Gibbous
Jan 4
Last Quarter
Jan 11
New
Jan 18
First Quarter
Jan 26
Full

Hourly Weather History & Observations

Time (EST) Temp. Windchill Dew Point Humidity Pressure Visibility Wind Dir Wind Speed Gust Speed Precip Events Conditions
12:53 AM 32.0 °F 21.2 °F 19.9 °F 61% 30.19 in 10.0 mi WNW 16.1 mph - N/A   Overcast
1:53 AM 32.0 °F 21.2 °F 19.9 °F 61% 30.20 in 10.0 mi WNW 16.1 mph - N/A   Overcast
2:53 AM 30.9 °F 19.8 °F 19.9 °F 64% 30.22 in 10.0 mi West 16.1 mph 21.9 mph N/A   Overcast
3:53 AM 30.9 °F 18.7 °F 19.9 °F 64% 30.21 in 10.0 mi WNW 19.6 mph 26.5 mph N/A   Overcast
4:53 AM 30.0 °F 17.5 °F 19.9 °F 66% 30.21 in 10.0 mi West 19.6 mph - N/A   Overcast
5:53 AM 30.9 °F 19.8 °F 19.0 °F 61% 30.22 in 10.0 mi West 16.1 mph 26.5 mph N/A   Overcast
6:53 AM 30.0 °F 21.1 °F 19.9 °F 66% 30.22 in 10.0 mi West 10.4 mph - N/A   Overcast
8:53 AM 30.9 °F 22.8 °F 21.0 °F 67% 30.21 in 10.0 mi West 9.2 mph - N/A   Overcast
9:53 AM 32.0 °F 23.6 °F 21.0 °F 64% 30.22 in 10.0 mi West 10.4 mph 21.9 mph N/A   Overcast
10:53 AM 33.1 °F 24.4 °F 21.0 °F 61% 30.23 in 10.0 mi West 11.5 mph - N/A   Overcast
11:53 AM 35.1 °F 27.9 °F 21.0 °F 57% 30.19 in 10.0 mi West 9.2 mph - N/A   Overcast
12:53 PM 36.0 °F 26.7 °F 21.0 °F 55% 30.14 in 10.0 mi West 15.0 mph - N/A   Clear
1:53 PM 37.0 °F 26.7 °F 21.0 °F 52% 30.11 in 10.0 mi West 19.6 mph 27.6 mph N/A   Clear
2:53 PM 37.9 °F 27.9 °F 21.9 °F 53% 30.13 in 10.0 mi West 19.6 mph 26.5 mph N/A   Clear
3:53 PM 37.0 °F 27.4 °F 21.0 °F 52% 30.14 in 10.0 mi West 17.3 mph 26.5 mph N/A   Clear
4:53 PM 36.0 °F 27.5 °F 19.0 °F 50% 30.14 in 10.0 mi West 12.7 mph - N/A   Clear
5:53 PM 34.0 °F 27.2 °F 19.9 °F 56% 30.16 in 10.0 mi West 8.1 mph - N/A   Clear
6:53 PM 33.1 °F 25.5 °F 19.0 °F 56% 30.17 in 10.0 mi West 9.2 mph - N/A   Clear
7:53 PM 33.1 °F 22.2 °F 19.9 °F 59% 30.18 in 10.0 mi West 17.3 mph 25.3 mph N/A   Clear
8:53 PM 33.1 °F 24.9 °F 19.9 °F 59% 30.18 in 10.0 mi West 10.4 mph 19.6 mph N/A   Clear
9:53 PM 33.1 °F 24.4 °F 19.9 °F 59% 30.19 in 10.0 mi West 11.5 mph - N/A   Clear
10:53 PM 34.0 °F 25.0 °F 19.9 °F 56% 30.19 in 10.0 mi West 12.7 mph - N/A   Clear
11:53 PM 34.0 °F 26.6 °F 19.0 °F 54% 30.19 in 10.0 mi West 9.2 mph - N/A   Clear